Regional Weather Roundup
Issued by NWS

Home | Current Version | Previous Version | Text Only | Print | Product List | Glossary Off
Versions: 1 2 3 4 5 6 7 8 9 10 11 12 13 14 15 16 17 18 19 20 21 22 23 24 25 26 27 28 29 30 31 32 33 34 35 36 37 38 39 40 41 42 43 44 45 46 47 48 49 50

000
ASUS43 KFSD 291010
RWRSD

WEATHER ROUNDUP FOR SOUTH DAKOTA
NATIONAL WEATHER SERVICE SIOUX FALLS SD
400 AM CST THU JAN 29 2015

NOTE: "FAIR" INDICATES FEW OR NO CLOUDS BELOW 12,000 FEET WITH NO
SIGNIFICANT WEATHER AND/OR OBSTRUCTIONS TO VISIBILITY.


SDZ001>005-009-010-012>017-291100-
NORTHWEST AND NORTH CENTRAL SOUTH DAKOTA

CITY           SKY/WX    TMP DP  RH WIND       PRES   REMARKS
BUFFALO          N/A     30  23  75 NW22      30.31R WCI  17
FAITH            N/A     34  21  59 NW22      30.33R WCI  22
MOBRIDGE       CLOUDY    34  26  72 N15       30.28R WCI  24
$$

SDZ012>016-024>037-041>051-057-063-072>074-291100-
SOUTHWEST AND SOUTH CENTRAL SOUTH DAKOTA

CITY           SKY/WX    TMP DP  RH WIND       PRES   REMARKS
RAPID CTY ARPT PTCLDY    33  24  69 N23G33    30.36S WCI  21
PIERRE         CLOUDY    35  26  69 NW18G29   30.31R WCI  24
CUSTER         CLEAR     29   0  28 N8        30.30R WCI  21
ELLSWORTH AFB  MOCLDY    33  24  69 N23       30.35  WCI  21
PHILIP         CLOUDY    36  24  62 NW12      30.37R
PINE RIDGE     CLEAR     28  22  78 NW6       30.39R WCI  22
WINNER         CLOUDY    36  26  67 NW23G29   30.31R
$$

SDZ004>011-016>023-039-040-291100-
NORTHEAST SOUTH DAKOTA

CITY           SKY/WX    TMP DP  RH WIND       PRES   REMARKS
ABERDEEN       CLOUDY    32  25  75 N20       30.26R WCI  20
WATERTOWN      CLOUDY    27  22  81 NW28G40   30.17R WCI  11
SISSETON         N/A     28  24  85 N24G36    30.18R WCI  14
$$

SDZ017-020-022-023-036>040-048>070-291100-
SOUTHEAST SOUTH DAKOTA

CITY           SKY/WX    TMP DP  RH WIND       PRES   REMARKS
SIOUX FALLS    CLOUDY    32  26  78 NW28G35   30.14R WCI  18
HURON          CLOUDY    33  28  81 NW18G24   30.24R WCI  22
CHAMBERLAIN    CLOUDY    34  26  74 NW21G29   30.29R WCI  22
MITCHELL       CLOUDY    34  29  82 NW22G30   30.24R WCI  22
YANKTON        CLOUDY    34  28  80 NW23      30.22R WCI  22
$$

ABBREVIATIONS USED IN REMARKS
   TC - TEMPERATURE IN CELSIUS
  WCI - WIND CHILL INDEX
   HX - HEAT INDEX
  VSB - VISIBILITY



USA.gov is the U.S. government's official web portal to all federal, state and local government web resources and services.